Wind_Speed
13 7 10 11 16 17 21 15 17 26 28 31 32 39 28 31 25 28 26 26 26 24 22 21 24 28 32 32 37 42 45 47 49 48 47 46 47 48 45 42 44 47 46 47
10 12 9 15 17 21 19 18 26 16 24 27 34 40 34 28 27 26 27 26 23 20 21 28 28 33 33 37 42 46 48 48 47 47 47 48 46 44 41 43 45 45 45 46
8 17 14 18 19 20 23 20 15 23 34 34 41 33 29 27 24 28 25 23 22 20 26 28 33 34 39 43 47 48 48 48 49 51 50 47 43 40 41 42 42 43 43 45
19 16 14 13 13 9 18 35 39 35 38 33 35 22 28 24 26 27 20 18 22 26 28 29 32 38 43 46 50 48 49 52 52 47 42 38 36 35 37 38 39 40 41 38
23 20 8 10 20 25 26 33 38 36 34 28 25 28 26 28 29 24 11 25 26 27 29 32 37 41 46 47 46 49 51 48 41 35 32 32 32 33 33 35 36 38 36 28
9 13 16 19 24 26 33 33 29 28 21 35 33 13 19 36 31 19 25 24 25 26 30 34 40 43 44 44 50 52 47 36 30 28 29 29 29 29 31 32 35 34 24 18
30 10 21 28 24 30 24 35 24 26 27 27 35 29 32 38 18 21 17 21 24 26 32 37 41 43 46 49 49 46 32 26 24 25 27 26 26 27 28 29 31 29 19 14
19 32 19 36 26 35 35 26 28 15 22 22 29 35 10 28 25 21 22 24 27 31 35 40 39 42 47 48 43 28 23 21 23 25 24 23 24 26 27 28 29 28 17 11
19 20 32 38 35 39 27 14 26 25 21 21 27 13 22 18 17 17 25 27 30 33 37 37 41 44 43 40 25 21 20 21 23 22 22 22 22 24 24 24 28 29 20 14
27 29 28 34 40 18 21 25 11 13 17 16 22 24 20 25 23 23 27 27 29 35 35 38 40 39 34 26 23 19 20 21 21 21 20 19 19 21 21 23 25 28 26 19
29 28 27 21 27 27 20 20 22 15 19 1 15 18 28 22 22 22 25 31 33 31 35 37 36 33 28 25 20 20 19 19 19 19 17 16 17 19 19 21 23 25 27 26
29 23 22 16 19 21 18 17 19 9 10 13 9 23 13 19 23 23 26 28 25 30 34 34 33 28 24 20 21 21 19 18 18 17 14 14 14 15 18 20 21 23 24 24
23 24 17 18 23 20 14 23 28 15 11 8 6 13 16 20 22 23 24 27 26 29 32 32 29 22 20 23 22 18 19 17 16 14 12 10 10 12 16 20 23 23 22 22
16 14 11 9 19 22 20 24 17 12 10 21 6 15 18 21 22 24 25 27 27 28 30 32 26 21 22 22 17 19 18 17 14 11 8 7 8 10 13 15 19 22 24 22
16 16 16 18 18 17 21 24 11 15 9 9 12 15 18 22 23 25 25 27 28 28 30 30 26 21 21 20 17 19 18 16 12 9 7 6 7 9 10 11 14 17 19 21
17 16 19 11 15 18 20 14 9 10 11 12 14 17 21 22 23 25 25 26 29 30 29 27 27 21 20 20 18 17 18 15 10 6 6 6 7 7 9 9 9 12 14 16
15 16 13 10 12 14 14 13 12 13 13 15 17 20 20 22 23 24 24 26 28 29 28 27 25 21 19 18 16 16 16 13 8 5 6 7 7 8 8 7 7 8 10 13
12 9 10 8 7 11 12 14 16 16 17 18 21 22 23 25 25 24 26 26 27 28 27 25 25 21 18 17 15 15 15 10 6 4 5 7 8 8 7 6 6 6 8 11
11 10 8 7 9 13 14 17 19 21 22 21 24 23 24 25 29 26 25 25 26 26 24 23 23 23 18 17 16 14 12 11 6 4 5 6 7 7 5 3 5 7 9 10
12 12 12 13 15 16 16 19 20 24 24 27 27 27 26 25 24 27 28 27 27 25 23 22 20 22 20 17 16 15 13 11 9 6 6 5 5 5 2 1 4 6 7 8
12 12 12 12 14 17 20 23 25 24 24 27 28 28 28 28 28 28 29 29 27 26 25 23 21 20 20 18 16 15 14 12 11 10 8 8 6 5 3 2 2 5 6 6
12 13 14 19 21 24 23 24 23 25 27 28 29 30 29 30 31 30 29 29 30 28 26 23 21 21 20 18 17 16 15 14 13 11 11 11 9 8 6 6 5 6 6 6
13 14 17 20 24 25 26 27 28 28 28 32 32 31 31 34 34 33 32 31 30 30 28 26 25 22 21 19 17 16 16 16 15 13 14 14 13 12 11 11 10 10 10 10
15 18 20 22 25 30 28 31 31 33 34 33 32 33 35 38 36 33 32 31 30 30 29 28 26 24 23 21 20 17 17 17 17 15 14 15 17 17 16 14 15 15 14 14
18 22 25 27 27 31 31 33 34 35 34 33 35 38 41 43 41 39 37 36 33 29 28 30 28 26 26 25 22 21 18 19 18 18 17 16 17 20 20 19 17 19 18 18
21 25 28 28 29 32 33 33 33 34 35 37 38 39 41 42 43 43 41 40 37 34 33 30 31 29 29 26 25 22 22 20 20 20 20 20 18 19 22 23 22 22 22 23
Wind_Direction
310 283 273 295 286 285 290 294 286 275 306 306 315 308 314 317 311 311 309 310 306 303 302 300 298 304 308 309 309 310 310 310 309 309 309 307 305 303 303 301 301 301 299 298
286 280 295 260 269 272 290 303 275 313 302 305 309 304 323 320 313 311 312 312 307 305 300 310 307 306 311 314 313 313 313 311 311 310 308 305 303 304 303 303 303 303 302 302
256 284 281 282 293 306 296 261 325 306 314 317 318 304 320 308 310 311 315 309 307 318 311 309 306 312 315 315 315 315 314 313 313 310 307 305 305 307 306 308 308 308 308 306
241 226 267 324 284 295 298 311 311 320 323 314 311 286 292 319 314 314 310 301 318 313 311 306 313 314 316 316 316 316 316 315 314 313 312 311 311 311 313 313 315 315 315 315
281 307 296 298 270 301 306 309 310 319 324 310 283 335 315 322 313 329 296 310 308 310 313 317 314 316 317 317 317 316 316 317 319 320 320 318 318 319 319 321 322 325 325 321
230 275 275 287 296 310 312 312 321 324 323 322 318 341 313 308 314 313 306 311 311 314 313 314 317 315 317 319 317 318 321 322 324 325 323 322 324 327 327 331 334 336 336 335
321 216 302 309 310 324 327 325 321 307 306 313 308 316 286 301 313 312 319 314 312 314 316 316 319 324 324 320 319 321 324 326 329 328 327 330 332 334 336 341 344 355 357 3
292 291 314 302 308 309 317 297 301 294 294 293 281 281 276 314 323 322 330 329 324 323 321 324 327 325 321 320 323 326 327 332 332 331 334 337 338 341 346 346 359 9 8 13
287 280 293 301 302 311 313 305 283 291 320 295 304 330 342 331 325 325 327 329 324 326 326 327 326 323 323 325 333 330 335 334 335 337 341 341 344 346 349 359 9 14 16 11
288 296 295 295 308 324 317 315 325 310 293 299 292 284 324 323 326 327 324 327 328 325 327 327 325 325 329 335 335 335 336 336 337 340 344 348 348 352 358 11 19 21 26 25
294 297 297 305 296 307 300 288 301 303 297 238 292 296 318 319 322 324 323 327 327 328 327 328 329 329 332 333 336 334 334 337 335 344 347 353 355 358 12 19 26 29 31 38
308 311 314 292 305 305 319 308 313 299 294 302 305 274 291 324 321 325 325 327 325 326 332 333 332 333 332 336 336 332 335 335 339 346 354 353 359 6 22 31 33 35 37 43
313 316 334 290 308 309 307 285 310 315 286 235 279 306 321 316 323 323 325 329 328 330 339 338 336 338 341 337 334 334 333 335 339 343 0 347 3 14 24 38 44 44 42 46
329 337 335 288 311 316 312 322 315 293 275 274 281 316 333 322 322 324 328 330 332 331 335 341 334 335 340 338 337 338 334 335 340 341 352 349 11 14 27 38 47 52 53 52
352 346 336 326 317 312 320 325 303 5 37 360 324 316 323 325 324 323 324 329 334 335 331 335 336 329 336 343 339 338 337 335 340 344 342 350 11 15 25 35 47 55 58 58
346 345 336 1 328 335 15 23 50 18 351 330 325 330 329 327 325 325 323 327 335 334 333 335 338 327 330 340 339 340 342 337 339 348 338 348 1 11 17 28 44 58 66 67
352 353 3 2 346 8 3 16 358 354 340 330 330 329 327 325 323 324 325 329 332 334 334 336 337 328 328 335 335 338 344 343 335 350 332 341 354 6 15 21 41 59 73 78
354 5 359 4 359 357 348 345 339 337 330 328 329 328 327 326 325 327 326 325 328 336 335 333 339 332 323 329 330 334 341 342 326 331 325 332 352 10 8 28 48 68 86 94
2 358 2 348 346 336 335 337 332 328 327 323 322 320 321 324 322 326 323 325 328 333 333 331 336 340 322 323 326 325 332 335 311 294 306 328 343 356 4 39 83 85 96 102
348 348 352 345 339 337 333 331 325 320 323 321 317 316 317 320 321 319 320 321 322 326 329 326 326 336 332 315 317 316 320 327 304 278 281 299 309 321 345 114 124 121 115 120
338 338 340 332 325 323 320 322 320 318 314 313 313 315 315 317 319 319 319 319 318 319 323 324 321 319 329 320 305 310 309 309 305 278 265 271 267 270 255 249 193 160 145 146
333 330 329 321 319 318 320 317 318 317 317 315 315 315 316 315 313 313 314 314 313 313 313 314 314 314 312 321 308 297 302 297 294 288 263 256 264 268 247 235 242 234 194 185
321 317 318 317 314 315 317 316 315 313 312 312 313 312 313 314 313 310 307 307 308 307 306 309 310 308 307 305 308 294 290 292 285 283 275 253 249 250 250 237 229 234 233 216
316 319 323 319 318 312 316 314 314 313 311 310 311 311 311 314 311 309 309 306 304 300 299 300 301 301 298 297 294 296 284 282 278 272 272 262 251 247 247 243 238 234 235 237
325 326 324 322 316 313 316 312 311 310 310 309 307 305 304 305 307 306 304 303 301 297 296 298 293 293 291 290 287 284 286 278 277 269 264 264 258 252 248 246 245 242 236 237
325 324 323 321 319 316 314 313 312 309 305 302 301 300 299 300 299 299 304 303 302 297 295 290 290 288 284 281 280 278 276 276 273 273 261 258 259 254 250 248 247 245 244 238
Height
5911 5912 5915 5916 5912 5907 5902 5901 5902 5891 5887 5880 5877 5874 5870 5865 5862 5858 5854 5851 5847 5843 5840 5839 5836 5832 5827 5823 5818 5812 5805 5799 5791 5783 5776 5769 5763 5756 5750 5745 5739 5734 5728 5722
5914 5914 5913 5910 5906 5901 5899 5900 5888 5867 5881 5878 5871 5862 5863 5860 5855 5851 5847 5844 5841 5840 5837 5834 5831 5826 5822 5816 5810 5804 5796 5789 5782 5775 5768 5760 5754 5747 5740 5736 5730 5724 5717 5710
5914 5912 5907 5906 5903 5899 5895 5877 5860 5879 5876 5873 5866 5853 5856 5855 5851 5846 5843 5839 5836 5835 5832 5828 5826 5820 5814 5808 5801 5794 5787 5779 5772 5764 5757 5751 5744 5739 5733 5727 5721 5713 5706 5698
5908 5901 5905 5904 5900 5894 5895 5883 5878 5875 5873 5870 5861 5854 5845 5848 5846 5842 5836 5831 5833 5832 5829 5824 5819 5814 5807 5800 5793 5785 5778 5770 5762 5755 5748 5743 5737 5732 5726 5719 5712 5704 5696 5687
5905 5902 5904 5903 5897 5893 5889 5883 5879 5875 5869 5862 5858 5836 5840 5841 5842 5836 5822 5832 5832 5829 5824 5819 5815 5807 5800 5793 5785 5778 5771 5762 5754 5749 5743 5738 5733 5727 5721 5713 5705 5697 5687 5679
5893 5899 5899 5897 5892 5888 5884 5878 5874 5871 5863 5860 5851 5841 5844 5838 5839 5836 5834 5831 5828 5825 5821 5816 5809 5803 5795 5787 5778 5769 5762 5755 5750 5746 5741 5735 5729 5723 5716 5709 5701 5692 5683 5677
5894 5881 5893 5891 5887 5884 5877 5878 5874 5873 5870 5864 5857 5852 5840 5835 5836 5834 5831 5829 5825 5822 5817 5810 5803 5794 5785 5779 5772 5763 5757 5752 5748 5743 5738 5732 5727 5720 5714 5707 5699 5689 5681 5677
5900 5893 5886 5884 5884 5882 5879 5876 5874 5864 5867 5862 5855 5842 5826 5834 5832 5829 5827 5824 5822 5817 5811 5804 5798 5790 5781 5773 5766 5758 5754 5750 5746 5741 5736 5730 5725 5718 5712 5706 5697 5688 5681 5677
5894 5894 5886 5880 5879 5877 5872 5872 5866 5862 5860 5843 5848 5842 5829 5832 5832 5827 5826 5822 5819 5813 5806 5800 5792 5784 5777 5768 5761 5757 5753 5748 5744 5739 5734 5729 5724 5718 5712 5705 5697 5689 5682 5678
5889 5887 5884 5878 5872 5872 5867 5863 5862 5863 5859 5856 5846 5844 5832 5832 5830 5827 5822 5820 5816 5809 5802 5795 5787 5779 5772 5766 5761 5756 5752 5747 5743 5738 5733 5729 5724 5719 5713 5706 5699 5691 5684 5679
5882 5881 5879 5877 5869 5865 5864 5862 5857 5854 5846 5848 5848 5841 5833 5832 5830 5826 5822 5815 5810 5805 5799 5791 5783 5776 5770 5764 5760 5755 5751 5747 5742 5738 5733 5729 5725 5721 5715 5708 5702 5695 5689 5683
5874 5874 5872 5871 5864 5860 5857 5853 5851 5850 5851 5846 5846 5836 5833 5833 5829 5825 5819 5815 5810 5804 5796 5787 5780 5774 5769 5764 5759 5755 5751 5746 5742 5738 5734 5730 5727 5723 5717 5711 5705 5700 5695 5690
5873 5869 5868 5864 5861 5857 5853 5848 5847 5846 5844 5838 5842 5837 5834 5831 5826 5822 5818 5812 5807 5800 5793 5785 5778 5773 5768 5763 5759 5754 5750 5745 5741 5738 5734 5732 5729 5725 5720 5715 5709 5704 5701 5697
5869 5866 5864 5863 5857 5853 5850 5847 5844 5843 5843 5840 5837 5836 5831 5827 5823 5818 5814 5809 5803 5797 5790 5784 5777 5772 5767 5762 5757 5753 5749 5745 5741 5738 5736 5734 5730 5727 5723 5719 5714 5710 5706 5703
5866 5863 5860 5856 5854 5850 5846 5843 5843 5841 5840 5840 5837 5832 5829 5825 5820 5816 5811 5806 5801 5794 5788 5782 5775 5770 5766 5761 5756 5752 5748 5744 5741 5738 5737 5735 5732 5729 5725 5722 5718 5714 5711 5709
5864 5861 5857 5855 5852 5849 5845 5842 5842 5840 5838 5836 5833 5829 5825 5821 5817 5812 5808 5803 5797 5791 5785 5779 5773 5768 5764 5760 5755 5750 5747 5743 5741 5738 5737 5736 5733 5730 5728 5725 5722 5719 5716 5714
5862 5859 5856 5854 5852 5848 5846 5843 5841 5838 5836 5834 5830 5826 5821 5817 5813 5808 5803 5798 5793 5788 5782 5776 5771 5766 5763 5759 5754 5750 5746 5743 5741 5739 5738 5736 5734 5732 5729 5727 5725 5722 5720 5718
5862 5859 5857 5855 5852 5849 5846 5843 5840 5837 5834 5830 5826 5822 5818 5814 5809 5804 5799 5794 5789 5785 5779 5774 5769 5764 5761 5757 5754 5749 5746 5743 5741 5740 5738 5737 5735 5733 5731 5729 5727 5726 5724 5722
5862 5860 5857 5854 5851 5849 5846 5843 5839 5835 5832 5827 5822 5818 5814 5810 5803 5800 5795 5790 5785 5780 5776 5771 5766 5762 5759 5756 5752 5748 5745 5743 5741 5739 5738 5737 5735 5734 5733 5731 5729 5728 5727 5725
5863 5860 5857 5854 5851 5848 5845 5841 5837 5832 5827 5822 5818 5814 5809 5805 5801 5795 5790 5786 5781 5777 5772 5768 5763 5759 5756 5753 5750 5747 5744 5742 5740 5738 5737 5736 5735 5734 5733 5732 5731 5730 5730 5729
5861 5858 5855 5852 5849 5846 5842 5838 5833 5830 5828 5819 5814 5809 5804 5799 5795 5790 5785 5780 5777 5773 5768 5764 5760 5756 5753 5750 5747 5745 5742 5740 5738 5737 5735 5735 5735 5734 5733 5733 5732 5731 5730 5730
5860 5857 5853 5849 5845 5842 5838 5834 5830 5825 5818 5813 5808 5803 5798 5793 5789 5784 5780 5775 5771 5767 5763 5760 5756 5753 5749 5746 5743 5741 5739 5737 5736 5734 5734 5733 5733 5733 5732 5732 5732 5732 5731 5730
5858 5855 5851 5849 5843 5837 5832 5828 5823 5818 5813 5807 5802 5796 5791 5786 5781 5777 5773 5768 5765 5761 5757 5753 5750 5747 5744 5742 5739 5737 5736 5734 5732 5731 5731 5730 5730 5730 5730 5730 5730 5730 5730 5730
5854 5851 5848 5844 5838 5831 5827 5821 5816 5810 5805 5800 5794 5788 5784 5779 5774 5769 5764 5760 5756 5753 5749 5746 5744 5742 5739 5736 5734 5732 5730 5729 5727 5726 5726 5726 5726 5726 5727 5727 5727 5728 5728 5728
5852 5847 5842 5838 5833 5826 5821 5815 5810 5803 5797 5792 5787 5781 5775 5769 5764 5759 5755 5750 5747 5744 5742 5739 5736 5733 5731 5730 5728 5727 5725 5723 5722 5721 5721 5721 5721 5721 5722 5723 5723 5724 5724 5725
5848 5843 5838 5832 5827 5821 5815 5809 5803 5796 5791 5785 5778 5772 5765 5759 5753 5748 5744 5739 5736 5733 5731 5728 5727 5725 5722 5721 5720 5719 5718 5717 5716 5715 5715 5714 5715 5715 5716 5717 5717 5718 5719 5720